Custer, SD

11:41 PM MDT on May 29, 2017 (GMT -0600)
Custer County

Weather History for KCUT - November, 2012

Change the Weather History Date:

Thursday, November 8, 2012

  Actual Average Record
Temperature  
Mean Temperature 40 °F 35 °F  
Max Temperature 52 °F 46 °F 70 °F (1978)
Min Temperature 28 °F 24 °F -10 °F (1948)
Degree Days  
Heating Degree Days 25 30  
Month to date heating degree days 177 229  
Since 1 July heating degree days 1197 1408  
Cooling Degree Days 0 0  
Month to date cooling degree days 0 0  
Year to date cooling degree days 390 177  
Moisture  
Dew Point 25 °F    
Average Humidity 61    
Maximum Humidity 92    
Minimum Humidity 30    
Precipitation  
Precipitation 0.00 in 0.03 in 0.37 in (1966)
Month to date precipitation 0.01 0.19  
Year to date precipitation 11.58 18.15  
Sea Level Pressure  
Sea Level Pressure 29.89 in    
Wind  
Wind Speed 7 mph (NE)    
Max Wind Speed 17 mph    
Max Gust Speed 23 mph    
Visibility 9 miles    
Events      
T = Trace of Precipitation, MM = Missing Value Source: NWS Daily Summary

Daily Weather History Graph

Daily Weather History Graph

Search for Another Location

Airport or City:

Trip Planner

Search our weather history database for the weather conditions in past years. The results will help you decide how hot, cold, wet, or windy it might be!

Date:

Astronomy

Nov. 08, 2012 Rise Set
Actual Time 6:40 AM MST 4:35 PM MST
Civil Twilight 6:09 AM MST 5:06 PM MST
Nautical Twilight 5:35 AM MST 5:40 PM MST
Astronomical Twilight 5:01 AM MST 6:14 PM MST
Moon 12:27 AM MST (11/8) 1:27 PM MST (11/8)
Length of Visible Light 10h 56m
Length of Day
9h 55m
Waning Crescent, 32% of the Moon is Illuminated
Nov 8
Waning Crescent
Nov 13
New
Nov 20
First Quarter
Nov 28
Full
Dec 6
Last Quarter

Hourly Weather History & Observations

Time (MST) Temp. Windchill Dew Point Humidity Pressure Visibility Wind Dir Wind Speed Gust Speed Precip Events Conditions
12:53 AM 48.9 °F - 21.0 °F 33% 29.72 in 10.0 mi NNE 4.6 mph - N/A   Clear
1:53 AM 43.0 °F 37.2 °F 28.0 °F 56% 29.78 in 10.0 mi North 10.4 mph 20.7 mph N/A   Clear
2:53 AM 39.9 °F 33.4 °F 28.9 °F 65% 29.79 in 10.0 mi North 10.4 mph - N/A   Clear
3:53 AM 39.0 °F 32.8 °F 28.0 °F 65% 29.82 in 10.0 mi North 9.2 mph - N/A   Clear
4:53 AM 37.0 °F 33.3 °F 27.0 °F 67% 29.88 in 10.0 mi NNW 4.6 mph - N/A   Clear
5:53 AM 34.0 °F 28.8 °F 25.0 °F 70% 29.92 in 10.0 mi NW 5.8 mph - N/A   Clear
6:53 AM 33.1 °F 28.7 °F 25.0 °F 72% 29.96 in 10.0 mi NW 4.6 mph - N/A   Clear
7:53 AM 37.0 °F 33.3 °F 25.0 °F 62% 29.97 in 10.0 mi NW 4.6 mph - N/A   Clear
8:53 AM 39.9 °F - 21.9 °F 49% 29.97 in 10.0 mi Calm Calm - N/A   Clear
9:53 AM 43.0 °F 38.8 °F 23.0 °F 45% 29.96 in 10.0 mi East 6.9 mph - N/A   Clear
10:53 AM 45.0 °F 40.6 °F 21.0 °F 39% 29.93 in 10.0 mi East 8.1 mph - N/A   Clear
11:53 AM 45.0 °F 41.2 °F 19.0 °F 36% 29.89 in 10.0 mi SE 6.9 mph - N/A   Clear
12:53 PM 44.1 °F 38.6 °F 18.0 °F 35% 29.87 in 10.0 mi East 10.4 mph - N/A   Clear
1:53 PM 44.1 °F 38.1 °F 24.1 °F 45% 29.88 in 10.0 mi ENE 11.5 mph - N/A   Clear
2:53 PM 42.1 °F 35.7 °F 23.0 °F 47% 29.89 in 10.0 mi East 11.5 mph - N/A   Clear
3:53 PM 37.0 °F 29.8 °F 24.1 °F 59% 29.91 in 10.0 mi ENE 10.4 mph - N/A   Clear
4:53 PM 33.1 °F 23.4 °F 24.1 °F 70% 29.92 in 10.0 mi ENE 13.8 mph - N/A   Clear
5:53 PM 30.9 °F 21.7 °F 25.0 °F 79% 29.94 in 10.0 mi ENE 11.5 mph - N/A   Clear
6:29 PM 30.2 °F 21.3 °F 26.6 °F 86% 29.89 in 10.0 mi ENE 10.4 mph - N/A   Partly Cloudy
6:49 PM 30.2 °F 22.6 °F 26.6 °F 86% 29.90 in 10.0 mi ENE 8.1 mph - N/A   Mostly Cloudy
6:53 PM 30.0 °F 22.4 °F 26.1 °F 85% 29.96 in 10.0 mi ENE 8.1 mph - N/A   Mostly Cloudy
7:53 PM 30.0 °F 23.2 °F 26.1 °F 85% 29.93 in 10.0 mi East 6.9 mph 16.1 mph N/A   Overcast
8:28 PM 30.2 °F 22.6 °F 26.6 °F 86% 29.88 in 10.0 mi ENE 8.1 mph - N/A   Overcast
8:53 PM 28.9 °F 21.1 °F 27.0 °F 92% 29.91 in 10.0 mi East 8.1 mph - N/A   Overcast
9:53 PM 28.9 °F 23.9 °F 26.1 °F 89% 29.88 in 9.0 mi East 4.6 mph - N/A   Overcast
10:53 PM 28.0 °F - 26.1 °F 92% 29.86 in 2.5 mi Calm Calm - N/A   Overcast
11:35 PM 28.4 °F - 26.6 °F 93% 29.85 in 3.0 mi Calm Calm - N/A   Overcast
11:42 PM 28.4 °F 24.6 °F 28.4 °F 100% 29.84 in 1.8 mi ENE 3.5 mph - N/A   Overcast
11:53 PM 28.9 °F 25.2 °F 28.0 °F 96% 29.85 in 1.0 mi East 3.5 mph - N/A   Overcast